Starlink 33572

operational
NORAD ID: 62767 Int'l Des: 2025-015 Owner: SPXS Country: US Constellation: starlink
LEOCIRCULAR

关于 Starlink 33572

正在加载描述...

实时位置

正在加载3D地球...

即将过境

高度历史

Altitude vs Time

uPlot chart will show altitude changes over time

两行轨道根数

1 62767U 25015K 25306.40775175 .00020286 00000-0 69484-3 0 9995
2 62767 53.1607 193.6727 0001638 83.3620 276.7567 15.30215495 44932
Epoch: Nov 2, 2025 • Age: 32 hours

当前状态

高度 479.4 km
速度 7.63 km/s
星下点 48.49°N, 59.9°W
发射日期 Jan 21, 2025
运行时间 0.7 years
类型 internet

技术详情

分类 Payload
质量 575.00 kg
干质量 530.00 kg
总质量 575.00 kg
长度 0.30 m
直径 4.10 m
跨度 29.00 m
形状 Box + pan
制造商 SPXS
平台类型 Starlink V2MO
阶段状态 In Orbit
所有者/国家 SPXS/US

大型星座

Loading constellations...